Volver al catálogo

STARLINK-34240

ActivoComunicacionesVLEO
NORAD 64265·PAYLOAD·🇺🇸 United States

Lanzado Jun 4, 2025 desde Vandenberg Space Force Base

Loading…

Próximos Pases (próximas 24 horas)

TLE

ActualizadoSource: CelesTrak SupGP

Época: Sep 14, 2026, 20:56 UTC

1 64265C 25120K   26257.87270833 -.00013461  00000+0 -39793-3 0  2570
2 64265  53.1594 315.7323 0001232  83.9499 228.6798 15.34380912    15

Sigue STARLINK-34240 en tiempo real con AllMySat

Download on the App Store